Chamberlain, SD

11:36 PM CDT on March 22, 2017 (GMT -0500)
Chamberlain

Weather History for K9V9 - September, 2013

Change the Weather History Date:

Monday, September 16, 2013

  Actual Average Record
Temperature  
Mean Temperature 56 °F -  
Max Temperature 68 °F 74 °F 96 °F (2003)
Min Temperature 45 °F 48 °F 41 °F (2014)
Degree Days  
Heating Degree Days 8    
Growing Degree Days 6 (Base 50)    
Moisture  
Dew Point 50 °F    
Average Humidity 78    
Maximum Humidity 97    
Minimum Humidity 52    
Precipitation  
Precipitation 0.00 in - - ()
Sea Level Pressure  
Sea Level Pressure 30.24 in    
Wind  
Wind Speed 8 mph (SSW)    
Max Wind Speed 22 mph    
Max Gust Speed 25 mph    
Averages and records for this station are not official NWS values.
T = Trace of Precipitation, MM = Missing Value Source: NWS Daily Summary

Daily Weather History Graph

Daily Weather History Graph

Search for Another Location

Airport or City:

Trip Planner

Search our weather history database for the weather conditions in past years. The results will help you decide how hot, cold, wet, or windy it might be!

Date:

Astronomy

Sep. 16, 2013 Rise Set
Actual Time 7:18 AM CDT 7:45 PM CDT
Civil Twilight 6:49 AM CDT 8:13 PM CDT
Nautical Twilight 6:15 AM CDT 8:47 PM CDT
Astronomical Twilight 5:39 AM CDT 9:22 PM CDT
Moon 5:58 PM CDT (9/16) 4:01 AM CDT (9/16)
Length of Visible Light 13h 24m
Length of Day
12h 27m
Waxing Gibbous, 90% of the Moon is Illuminated
Sep 16
Waxing Gibbous
Sep 19
Full
Sep 26
Last Quarter
Oct 4
New
Oct 11
First Quarter

Hourly Weather History & Observations

Time (CDT) Temp. Windchill Dew Point Humidity Pressure Visibility Wind Dir Wind Speed Gust Speed Precip Events Conditions
12:52 AM 50.0 °F - 48.0 °F 93% 30.31 in - SE 4.6 mph - N/A   Unknown
1:52 AM 48.9 °F - 46.0 °F 90% 30.31 in - South 3.5 mph - N/A   Unknown
2:52 AM 46.9 °F - 46.0 °F 97% 30.32 in - Calm Calm - N/A   Unknown
3:52 AM 45.0 °F 43.5 °F 43.0 °F 93% 30.31 in - South 3.5 mph - N/A   Unknown
4:52 AM 45.0 °F 43.5 °F 43.0 °F 93% 30.32 in - SSW 3.5 mph - N/A   Unknown
5:52 AM 46.9 °F - 46.0 °F 97% 30.30 in - South 3.5 mph - N/A   Unknown
6:52 AM 50.0 °F - 48.9 °F 96% 30.30 in - SSW 3.5 mph - N/A   Unknown
7:52 AM 52.0 °F - 50.0 °F 93% 30.32 in - South 5.8 mph - N/A   Unknown
8:52 AM 55.0 °F - 53.1 °F 93% 30.32 in - SSW 5.8 mph - N/A   Unknown
9:52 AM 57.0 °F - 54.0 °F 89% 30.32 in - South 10.4 mph - N/A   Unknown
10:52 AM 59.0 °F - 54.0 °F 83% 30.32 in - SSW 11.5 mph - N/A   Unknown
11:52 AM 59.0 °F - 52.0 °F 78% 30.31 in - SSW 15.0 mph - N/A   Unknown
12:52 PM 62.1 °F - 51.1 °F 67% 30.28 in - SSW 10.4 mph - N/A   Unknown
1:52 PM 63.0 °F - 50.0 °F 63% 30.26 in - SW 19.6 mph 24.2 mph N/A   Unknown
2:52 PM 64.9 °F - 50.0 °F 58% 30.24 in - SSW 18.4 mph 25.3 mph N/A   Unknown
3:52 PM 66.0 °F - 51.1 °F 59% 30.20 in - SSW 16.1 mph 23.0 mph N/A   Unknown
4:52 PM 68.0 °F - 50.0 °F 52% 30.17 in - SW 16.1 mph 21.9 mph N/A   Unknown
5:52 PM 66.9 °F - 50.0 °F 54% 30.14 in - SSW 21.9 mph - N/A   Unknown
6:52 PM 64.0 °F - 50.0 °F 60% 30.13 in - SSW 11.5 mph - N/A   Unknown
7:52 PM 60.1 °F - 50.0 °F 69% 30.12 in - South 10.4 mph - N/A   Unknown
8:52 PM 57.9 °F - 51.1 °F 78% 30.11 in - South 9.2 mph - N/A   Unknown
9:52 PM 57.9 °F - 51.1 °F 78% 30.10 in - South 10.4 mph - N/A   Unknown
10:52 PM 60.1 °F - 51.1 °F 72% 30.09 in - South 12.7 mph - N/A   Unknown
11:52 PM 61.0 °F - 52.0 °F 72% 30.08 in - SSW 10.4 mph - N/A   Unknown